Weather in Arambol

India     15°41′07″N   73°43′14″E
temp.,
°C
wind,
m/s
gust,
m/s
humid.,
%
clouds,
%
prec.,
mm/h
press.,
hPa
HPBL,
m
21 april, wed
wed2123:30+27wnw0172100 0.0 101155
02:30+26n117651 0.0 100961
05:30+24ene1282100 0.0 101046
08:30+29nnw1361100 0.0 1012668
11:30+35w453660 0.0 10111493
14:30+34w76435 0.0 1008941
17:30+31nw795180 0.0 1008836
20:30+28nw596696 0.0 1010699
22 april, thu
thu2223:30+27nnw387017 0.0 1011504
02:30+25n1178100 0.0 100952
05:30+24ene2281100 0.0 101046
08:30+29n2559100 0.0 1012665
11:30+34w5539100 0.0 10111271
14:30+33wnw7749100 0.0 1008790
17:30+31wnw564965 0.0 1008912
20:30+28nw3766100 0.0 1010416
23 april, fri
fri2323:30+26nw2374100 0.0 101188
02:30+25ne117961 0.0 100943
05:30+23e11836 0.0 101023
08:30+29ene12645 0.0 1012577
11:30+33w554552 0.0 10111357
14:30+33w6548100 0.0 1008960
17:30+30wnw5654100 0.0 1008951
20:30+28nw376589 0.0 1010436
24 april, sat
sat2423:30+25nnw247230 0.0 1011109
02:30+24n1178100 0.0 100933
05:30+23ne1182100 0.0 101031
08:30+29n2458100 0.0 1011612
11:30+35wnw5534100 0.0 10101282
14:30+33wnw8747100 0.0 1007677
17:30+31wnw67500 0.0 1008876
20:30+28nw48650 0.0 1010580
25 april, sun
sun2523:30+26nnw25740 0.0 1010212
02:30+24ne22790 0.0 100947
05:30+23nne11832 0.0 101022
08:30+29nnw13603 0.0 1012583
11:30+35w55422 0.0 10101281
14:30+33w77515 0.0 1007833
17:30+31wnw675949 0.0 1007975
20:30+28nw37715 0.0 1009486